Torna al catalogo

CZ-3B DEB

AttivoHEO
NORAD 42473·DEBRIS·🇨🇳 China

Lanciato Dec 19, 2011 da Xichang Satellite Launch Center

Loading…

Prossimi Passaggi (prossime 24 ore)

TLE

AggiornatoSource: Space-Track

Epoca: Sep 14, 2026, 11:33 UTC

1 42473U 11077AN  26257.48139312 -.00000247  00000-0  00000-0 0  9993
2 42473  23.5498  46.5227 7203475 132.8936 315.9442  1.69257970 64609

Traccia CZ-3B DEB in tempo reale con AllMySat

Download on the App Store